sat.trackr.live / text

‹ back to catalog

STARLINK-11679 [DTC]

NORAD 64129 · 2025-111G

PAYLOAD ACTIVE UNKNOWN

§ Identity

Operator
Country
US
Launch date
2025-05-24
Launch site
AFETR
Launch vehicle
Mass (kg)
RCS (m²)

Purposes: comms

External: N2YO · Heavens-Above · Gunter

§ Orbital elements

Epoch: 2026-09-20T23:06:23.171616Z

Period
91.66 min
Inclination
42.9937°
Eccentricity
0.0001964
Mean motion
15.70944526 rev/d
Perigee alt
354.9 km
Apogee alt
357.5 km
Semi-major
6,734.3 km
B*
8.1337e-4
RAAN
236.5209°
Arg perigee
160.5532°
Mean anomaly
199.5410°
Rev number
7,735

§ Raw data

STARLINK-11679 [DTC]1 64129U 25111G   26263.96276819  .00105723  00000+0  81337-3 0  99912 64129  42.9937 236.5209 0001964 160.5532 199.5410 15.70944526 77351

JSON: /api/v1/satellites/64129 · /tle

For live sub-satellite position, see the globe view (requires WebGL).

§ Visibility from observer

Set your observer location to see the next 7 days of passes ≥ 10°. The values pass through the URL so the page stays shareable.

No JS? Fill the form by hand. The geolocation button needs JavaScript.